Weather History for Haleyville, AL

Change the Weather History Date:

Tuesday, February 19, 2013

  Actual Average (KJFX) Record (KJFX)
Temperature  
Mean Temperature 40 °F -  
Max Temperature 50 °F 60 °F 76 °F (1986)
Min Temperature 28 °F 31 °F 15 °F (1993)
Degree Days  
Heating Degree Days 25    
Moisture  
Dew Point 35 °F    
Average Humidity 77    
Maximum Humidity 100    
Minimum Humidity 29    
Precipitation  
Precipitation 0.06 in - - ()
Sea Level Pressure  
Sea Level Pressure 30.11 in    
Wind  
Wind Speed 7 mph (WNW)    
Max Wind Speed 15 mph    
Max Gust Speed 23 mph    
Visibility 8 miles    
Events Rain    
Averages and records for this station are not official NWS values.
T = Trace of Precipitation, MM = Missing Value Source: NWS Daily Summary

Daily Weather History Graph

Daily Weather History Graph

Search for Another Location

Airport:

Trip Planner

Search our weather history database for the weather conditions in past years. The results will help you decide how hot, cold, wet, or windy it might be!

Date:

Astronomy

Feb. 19, 2013 Rise Set
Actual Time 6:30 AM CST 5:38 PM CST
Civil Twilight 6:05 AM CST 6:03 PM CST
Nautical Twilight 5:36 AM CST 6:32 PM CST
Astronomical Twilight 5:07 AM CST 7:01 PM CST
Moon 12:17 PM CST (2/19) 1:54 AM CST (2/19)
Length of Visible Light 11h 58m
Length of Day
11h 07m
Waxing Gibbous, 67% of the Moon is Illuminated
Feb 19
Waxing Gibbous
Feb 25
Full
Mar 4
Last Quarter
Mar 11
New
Mar 19
First Quarter

Hourly Weather History & Observations

Time (CST) Temp. Windchill Dew Point Humidity Pressure Visibility Wind Dir Wind Speed Gust Speed Precip Events Conditions
12:03 AM 46.4 °F 42.9 °F 44.6 °F 93% 30.02 in 6.0 mi SW 6.9 mph - 0.00 in Rain Light Rain
12:23 AM 46.4 °F - 46.4 °F 100% 30.02 in 5.0 mi Calm Calm - 0.01 in Rain Rain
12:56 AM 45.9 °F 41.7 °F 45.0 °F 97% 30.02 in 9.0 mi South 8.1 mph - 0.02 in Rain Light Rain
1:36 AM 46.4 °F 42.4 °F 44.6 °F 93% 29.98 in 6.0 mi South 8.1 mph - 0.01 in Rain Light Rain
1:45 AM 46.4 °F 41.5 °F 46.4 °F 100% 29.96 in 6.0 mi SSE 10.4 mph - 0.02 in Rain Light Rain
1:56 AM 45.9 °F 40.4 °F 45.9 °F 100% 29.99 in 8.0 mi South 11.5 mph - 0.02 in Rain Light Rain
2:21 AM 46.4 °F 43.5 °F 46.4 °F 100% 29.96 in 10.0 mi SSW 5.8 mph - 0.00 in Rain Light Rain
2:56 AM 46.9 °F - 46.9 °F 100% 30.00 in 8.0 mi SSW 8.1 mph - 0.01 in Rain Light Rain
3:33 AM 46.4 °F 45.2 °F 46.4 °F 100% 29.97 in 1.8 mi SW 3.5 mph - 0.01 in Rain Rain
3:48 AM 46.4 °F 43.5 °F 46.4 °F 100% 29.97 in 3.0 mi SW 5.8 mph - 0.01 in Rain Light Rain
3:56 AM 46.9 °F - 46.9 °F 100% 30.01 in 9.0 mi Calm Calm - 0.01 in   Overcast
4:06 AM 46.4 °F 42.9 °F 46.4 °F 100% 29.98 in 1.8 mi WSW 6.9 mph - 0.00 in Rain Light Rain
4:13 AM 46.4 °F 41.9 °F 46.4 °F 100% 29.98 in 3.0 mi WSW 9.2 mph - 0.00 in Rain Light Rain
4:56 AM 45.9 °F 39.4 °F 45.9 °F 100% 30.05 in 5.0 mi NW 15.0 mph 23.0 mph 0.00 in   Overcast
5:20 AM 42.8 °F 38.0 °F 42.8 °F 100% 30.03 in 7.0 mi NW 8.1 mph 16.1 mph N/A   Overcast
5:41 AM 42.8 °F 37.5 °F 41.0 °F 93% 30.05 in 9.0 mi NW 9.2 mph - N/A   Overcast
5:56 AM 41.9 °F 38.2 °F 39.9 °F 93% 30.10 in 10.0 mi NW 5.8 mph - N/A   Overcast
6:56 AM 39.9 °F 34.5 °F 36.9 °F 89% 30.13 in 10.0 mi NW 8.1 mph - N/A   Overcast
7:08 AM 39.2 °F 32.5 °F 35.6 °F 87% 30.11 in 10.0 mi NW 10.4 mph 16.1 mph N/A   Overcast
7:56 AM 39.9 °F 35.8 °F 34.9 °F 82% 30.17 in 10.0 mi NW 5.8 mph - N/A   Partly Cloudy
9:56 AM 43.9 °F 37.5 °F 29.1 °F 56% 30.21 in 10.0 mi NW 12.7 mph - N/A   Clear
10:56 AM 45.9 °F 40.8 °F 28.0 °F 50% 30.22 in 10.0 mi NNW 10.4 mph 20.7 mph N/A   Clear
11:56 AM 48.9 °F - 27.1 °F 43% 30.21 in 10.0 mi NW 12.7 mph 20.7 mph N/A   Clear
12:56 PM 48.9 °F - 21.0 °F 33% 30.20 in 10.0 mi NW 11.5 mph - N/A   Clear
1:56 PM 50.0 °F - 21.0 °F 32% 30.20 in 10.0 mi WNW 12.7 mph - N/A   Clear
2:56 PM 48.9 °F - 20.1 °F 32% 30.21 in 10.0 mi WNW 11.5 mph 19.6 mph N/A   Clear
3:56 PM 47.8 °F - 17.1 °F 29% 30.22 in 10.0 mi WNW 8.1 mph 20.7 mph N/A   Clear
4:56 PM 46.9 °F - 16.2 °F 29% 30.23 in 10.0 mi NW 9.2 mph - N/A   Clear
6:56 PM 39.9 °F 37.8 °F 19.0 °F 43% 30.25 in 10.0 mi NW 3.5 mph - N/A   Clear
8:56 PM 36.0 °F 30.3 °F 21.0 °F 55% 30.29 in 10.0 mi NNW 6.9 mph - N/A   Clear
9:56 PM 32.9 °F 27.5 °F 21.0 °F 62% 30.29 in 10.0 mi NNW 5.8 mph - N/A   Clear
10:56 PM 30.0 °F - 23.0 °F 75% 30.30 in 10.0 mi Calm Calm - N/A   Clear
11:56 PM 28.0 °F - 23.0 °F 81% 30.29 in 10.0 mi Calm Calm - N/A   Clear